When you browse on this site, cookies collect data to enhance your experience and personalize the content and advertising you see.
Visit our Privacy Policy to learn more. By continuing to use the site, you agree to this use of cookies and data.
  • En España
  • Lista de países
  • Para 7 días
  • Temperatura del agua
  • Mapa Satelital
  • El tiempo en el mapa
  • Informadores
  • user-avatar
    Iniciar sesión

    Tiempo cada hora Mérida

    Hoy, 17 Diciembre, Lunes

    Tiempo Temperatura Precipitaciones Viento Presión Humedad
    00:00 +12°C° 0 mm 2 mps 595 mmHg 38%
    01:00 +12°C° 0 mm 2 mps 595 mmHg 40%
    02:00 +12°C° 0 mm 2 mps 595 mmHg 42%
    03:00 +10°C° 0 mm 2 mps 595 mmHg 45%
    04:00 +10°C° 0 mm 2 mps 595 mmHg 47%
    05:00 +12°C° 0 mm 2 mps 595 mmHg 49%
    06:00 +13°C° 0 mm 2 mps 596 mmHg 50%
    07:00 +14°C° 0 mm 2 mps 597 mmHg 52%
    08:00 +16°C° 0 mm 2 mps 598 mmHg 50%
    09:00 +18°C° 0 mm 2 mps 599 mmHg 48%
    10:00 +20°C° 0 mm 2 mps 600 mmHg 46%
    11:00 +21°C° 0 mm 2 mps 600 mmHg 45%
    12:00 +21°C° 0 mm 2 mps 599 mmHg 45%
    13:00 +23°C° 0 mm 2 mps 599 mmHg 44%
    14:00 +21°C° 0 mm 2 mps 598 mmHg 47%
    15:00 +20°C° 0 mm 2 mps 597 mmHg 50%
    16:00 +20°C° 0 mm 2 mps 597 mmHg 53%
    17:00 +18°C° 0 mm 2 mps 596 mmHg 59%
    18:00 +16°C° 0 mm 2 mps 596 mmHg 66%
    19:00 +14°C° 0 mm 1 mps 595 mmHg 73%
    20:00 +14°C° 0 mm 2 mps 595 mmHg 71%
    21:00 +13°C° 0 mm 2 mps 595 mmHg 69%
    22:00 +13°C° 0 mm 2 mps 596 mmHg 67%
    23:00 +13°C° 0 mm 2 mps 595 mmHg 63%

    Mañana, 18 Diciembre, Martes

    Tiempo Temperatura Precipitaciones Viento Presión Humedad
    00:00 +13°C° 0 mm 2 mps 595 mmHg 60%
    01:00 +13°C° 0 mm 2 mps 595 mmHg 56%
    02:00 +12°C° 0 mm 2 mps 595 mmHg 53%
    03:00 +12°C° 0 mm 2 mps 595 mmHg 51%
    04:00 +12°C° 0 mm 2 mps 595 mmHg 49%
    05:00 +13°C° 0 mm 2 mps 595 mmHg 52%
    06:00 +14°C° 0 mm 2 mps 596 mmHg 54%
    07:00 +14°C° 0 mm 2 mps 597 mmHg 57%
    08:00 +16°C° 0 mm 2 mps 598 mmHg 56%
    09:00 +18°C° 0 mm 2 mps 599 mmHg 55%
    10:00 +20°C° 0 mm 2 mps 600 mmHg 53%
    11:00 +20°C° 0 mm 2 mps 599 mmHg 53%
    12:00 +21°C° 0 mm 2 mps 599 mmHg 53%
    13:00 +21°C° 0 mm 2 mps 598 mmHg 53%
    14:00 +21°C° 0 mm 2 mps 597 mmHg 55%
    15:00 +20°C° 0 mm 2 mps 597 mmHg 57%
    16:00 +20°C° 0 mm 2 mps 596 mmHg 58%
    17:00 +19°C° 0 mm 1 mps 596 mmHg 64%
    18:00 +16°C° 0 mm 1 mps 595 mmHg 69%
    19:00 +15°C° 0 mm 1 mps 595 mmHg 75%
    20:00 +14°C° 0 mm 1 mps 595 mmHg 73%
    21:00 +14°C° 0 mm 1 mps 596 mmHg 70%
    22:00 +14°C° 0 mm 2 mps 596 mmHg 67%
    23:00 +14°C° 0 mm 2 mps 596 mmHg 65%

    Pasado mañana, 19 Diciembre, Miércoles

    Tiempo Temperatura Precipitaciones Viento Presión Humedad
    00:00 +14°C° 0 mm 2 mps 596 mmHg 63%
    01:00 +13°C° 0 mm 2 mps 595 mmHg 61%
    02:00 +13°C° 0 mm 2 mps 595 mmHg 61%
    03:00 +13°C° 0 mm 2 mps 595 mmHg 61%
    04:00 +13°C° 0 mm 2 mps 595 mmHg 60%
    05:00 +13°C° 0 mm 2 mps 595 mmHg 60%
    06:00 +14°C° 0 mm 2 mps 596 mmHg 60%
    07:00 +15°C° 0 mm 2 mps 597 mmHg 60%
    08:00 +17°C° 0 mm 2 mps 598 mmHg 57%
    09:00 +19°C° 0 mm 2 mps 599 mmHg 53%
    10:00 +20°C° 0 mm 2 mps 600 mmHg 50%
    11:00 +21°C° 0 mm 2 mps 599 mmHg 50%
    12:00 +21°C° 0 mm 2 mps 598 mmHg 49%
    13:00 +23°C° 0 mm 2 mps 598 mmHg 48%
    14:00 +21°C° 0 mm 2 mps 597 mmHg 50%
    15:00 +20°C° 0 mm 2 mps 596 mmHg 52%
    16:00 +20°C° 0 mm 2 mps 596 mmHg 54%
    17:00 +18°C° 0 mm 2 mps 595 mmHg 58%
    18:00 +16°C° 0 mm 2 mps 595 mmHg 62%
    19:00 +14°C° 0 mm 1 mps 595 mmHg 67%
    20:00 +14°C° 0 mm 2 mps 595 mmHg 60%
    21:00 +14°C° 0 mm 2 mps 595 mmHg 54%
    22:00 +14°C° 0 mm 2 mps 595 mmHg 48%
    23:00 +14°C° 0 mm 2 mps 595 mmHg 48%

    20 Diciembre, Jueves

    Tiempo Temperatura Precipitaciones Viento Presión Humedad
    00:00 +13°C° 0 mm 2 mps 595 mmHg 48%
    01:00 +13°C° 0 mm 2 mps 594 mmHg 48%
    02:00 +13°C° 0 mm 2 mps 594 mmHg 52%
    03:00 +13°C° 0 mm 2 mps 594 mmHg 56%
    04:00 +13°C° 0 mm 2 mps 594 mmHg 60%
    05:00 +13°C° 0 mm 2 mps 595 mmHg 60%
    06:00 +14°C° 0 mm 2 mps 596 mmHg 61%
    07:00 +15°C° 0 mm 2 mps 597 mmHg 61%
    08:00 +17°C° 0 mm 2 mps 598 mmHg 58%
    09:00 +19°C° 0 mm 2 mps 599 mmHg 55%
    10:00 +21°C° 0 mm 2 mps 599 mmHg 52%
    11:00 +21°C° 0 mm 2 mps 599 mmHg 50%
    12:00 +23°C° 0 mm 2 mps 598 mmHg 48%
    13:00 +23°C° 0 mm 2 mps 598 mmHg 46%
    14:00 +23°C° 0 mm 2 mps 597 mmHg 48%
    15:00 +21°C° 0 mm 2 mps 596 mmHg 50%
    16:00 +20°C° 0 mm 2 mps 596 mmHg 52%
    17:00 +18°C° 0 mm 2 mps 595 mmHg 57%
    18:00 +17°C° 0 mm 2 mps 595 mmHg 61%
    19:00 +15°C° 0 mm 2 mps 595 mmHg 66%
    20:00 +15°C° 0 mm 2 mps 595 mmHg 62%
    21:00 +15°C° 0 mm 2 mps 595 mmHg 59%
    22:00 +14°C° 0 mm 2 mps 596 mmHg 55%
    23:00 +14°C° 0 mm 2 mps 595 mmHg 55%

    21 Diciembre, Viernes

    Tiempo Temperatura Precipitaciones Viento Presión Humedad
    00:00 +14°C° 0 mm 2 mps 595 mmHg 55%
    01:00 +14°C° 0 mm 2 mps 595 mmHg 56%
    02:00 +13°C° 0 mm 2 mps 594 mmHg 58%
    03:00 +13°C° 0 mm 2 mps 594 mmHg 61%
    04:00 +13°C° 0 mm 2 mps 594 mmHg 63%
    05:00 +14°C° 0 mm 2 mps 595 mmHg 63%
    06:00 +15°C° 0 mm 2 mps 596 mmHg 62%
    07:00 +15°C° 0 mm 2 mps 596 mmHg 62%
    08:00 +17°C° 0 mm 2 mps 597 mmHg 58%
    09:00 +19°C° 0 mm 2 mps 598 mmHg 54%
    10:00 +21°C° 0 mm 2 mps 599 mmHg 50%
    11:00 +21°C° 0 mm 2 mps 599 mmHg 49%
    12:00 +23°C° 0 mm 2 mps 598 mmHg 48%
    13:00 +23°C° 0 mm 2 mps 597 mmHg 47%
    14:00 +21°C° 0 mm 2 mps 597 mmHg 49%
    15:00 +21°C° 0 mm 2 mps 596 mmHg 51%
    16:00 +20°C° 0 mm 2 mps 596 mmHg 53%
    17:00 +18°C° 0 mm 2 mps 595 mmHg 59%
    18:00 +17°C° 0 mm 2 mps 595 mmHg 64%
    19:00 +15°C° 0 mm 1 mps 595 mmHg 70%
    20:00 +15°C° 0 mm 2 mps 595 mmHg 67%
    21:00 +15°C° 0 mm 2 mps 595 mmHg 64%
    22:00 +14°C° 0 mm 2 mps 596 mmHg 62%
    23:00 +14°C° 0 mm 2 mps 595 mmHg 60%

    22 Diciembre, Sábado

    Tiempo Temperatura Precipitaciones Viento Presión Humedad
    00:00 +14°C° 0 mm 2 mps 595 mmHg 59%
    01:00 +14°C° 0 mm 2 mps 595 mmHg 58%
    02:00 +13°C° 0 mm 2 mps 595 mmHg 58%
    03:00 +13°C° 0 mm 2 mps 594 mmHg 58%
    04:00 +13°C° 0 mm 2 mps 594 mmHg 58%
    05:00 +14°C° 0 mm 2 mps 595 mmHg 58%
    06:00 +14°C° 0 mm 2 mps 596 mmHg 58%
    07:00 +15°C° 0 mm 2 mps 597 mmHg 58%
    08:00 +17°C° 0 mm 2 mps 598 mmHg 54%
    09:00 +19°C° 0 mm 2 mps 599 mmHg 51%
    10:00 +20°C° 0 mm 2 mps 599 mmHg 48%
    11:00 +21°C° 0 mm 2 mps 599 mmHg 47%
    12:00 +21°C° 0 mm 2 mps 598 mmHg 46%
    13:00 +23°C° 0 mm 2 mps 598 mmHg 46%
    14:00 +21°C° 0 mm 2 mps 597 mmHg 47%
    15:00 +20°C° 0 mm 2 mps 596 mmHg 49%
    16:00 +20°C° 0 mm 2 mps 596 mmHg 51%
    17:00 +18°C° 0 mm 2 mps 595 mmHg 56%
    18:00 +16°C° 0 mm 2 mps 595 mmHg 60%
    19:00 +14°C° 0 mm 1 mps 595 mmHg 65%
    20:00 +14°C° 0 mm 2 mps 595 mmHg 61%
    21:00 +14°C° 0 mm 2 mps 595 mmHg 57%
    22:00 +14°C° 0 mm 2 mps 595 mmHg 53%
    23:00 +13°C° 0 mm 2 mps 595 mmHg 51%
    Mostrar más